Погода в Аршане

Россия / Республика Калмыкия     46°16′29″N   44°14′14″E
темп.,
°C
ветер,
м/с
пор.,
м/с
влажн.,
%
обл.,
%
осадки,
мм/ч
давл.,
гПа
погр.,
м
13 апреля, вт
вт1300:00+12вюв41061100 0.0 1022404
03:00+9юв34745 0.0 102257
06:00+10вюв3878100 0.0 1023253
09:00+15юв6116767 0.0 1023675
12:00+19вюв81145100 0.0 10221624
15:00+21юв71130100 0.0 10212474
18:00+18вюв5942100 0.0 1020240
21:00+14в61340100 0.0 1020307
14 апреля, ср
ср1400:00+12в5124150 0.0 1019283
03:00+11всв494576 0.0 1017215
06:00+10св3450100 0.0 101793
09:00+14всв3445100 0.1 1016322
12:00+18вюв453698 0.0 10151001
15:00+19юв5834100 0.0 10141652
18:00+16зюз4551100 0.0 1015149
21:00+13сз2365100 0.0 101794
15 апреля, чт
чт1500:00+11з3682100 0.0 1016143
03:00+10зсз4688100 0.0 1016106
06:00+10зсз4885100 0.0 1016193
09:00+15сз555884 0.0 1016551
12:00+18сз334640 0.0 10161295
15:00+20сз434286 0.0 10152153
18:00+17зсз475561 0.0 1015163
21:00+14зсз46632 0.0 101691
16 апреля, пт
пт1600:00+12сз45653 0.0 101676
03:00+11сз33676 0.0 101638
06:00+11ссз22705 0.0 101728
09:00+17сз2353100 0.0 1017522
12:00+19сз334381 0.0 10171505
15:00+21с22373 0.0 10162075
18:00+19всв35466 0.0 1015106
21:00+16юв224746 0.0 101714
17 апреля, сб
сб1700:00+12сз5882100 0.0 1018211
03:00+10зсз4893100 0.1 1018291
06:00+10з71191100 0.7 1020646
09:00+10з3491100 10.2 1021401
12:00+14зсз56578 0.8 10211360
15:00+16зсз454295 0.8 10211745
18:00+14з235394 0.0 102171
21:00+12з3459100 0.0 102169